Content
SEND FEEDBACK

Daily
Averages
Monthly
Summary
Mexico

SAN MARTINIANO, QUINTANA ROO


Home > North America > Mexico > Quintana Roo
Elevation: 49 feet     Latitude: 20 47N     Longitude: 087 16W

WEATHER
 
SELECT A DAY
Number of Records: 196,696;   Date Range: 2/21/06 - 9/3/14
 
SHARE

PRINT THIS DATA

[ ← Previous Day ]
WEATHER ALMANAC - MAY 15, 2014
[ Next Day → ]
[ °C ]   °F
Weather ElementAverageHighLow
Temperature78.8 °F87.8 °F (1:35 pm)73.4 °F (12:35 am)
Dewpoint42.2 °F80.6 °F (9:55 am) (7:00 pm)
Humidity75.4 %100 % (9:55 am)55 % (4:55 pm)
Barometer29.98 in30.03 in (12:35 am)29.92 in (4:15 pm)
Wind Speed8.3 mph18.4 mph (1:35 pm)
Wind Gust24.2 mph (1:55 pm)
Weather ElementAverage
Visibility10 mi
Wind DirectionSSW (216 °)

Weather ElementTotal
Precipitation0.01 in
Cooling Degree Days15.6 (Base 65)
Growing Degree Days30.6 (Base 50)
Averaged from 67 records on May 15, 2014
WEATHER CONDITIONS BREAKOUT
WIND DIRECTION BREAKOUT
WEATHER BY HOUR - MAY 15, 2014
[ °C ]   °F
Local TimeTemperatureDewpointHumidityBarometerVisibilityWind DirectionWind SpeedGust SpeedPrecipitationEventsConditions
12:35 AM73.4 °F0.0 °F30.03 in10.0 miESE (110°)4.6 mphMostly Cloudy
12:55 AM75.2 °F0.0 °F30.03 in10.0 miESE (120°)4.6 mph0.01 inScattered Clouds
1:15 AM75.2 °F0.0 °F30.02 in10.0 miSE (130°)5.8 mphClear
1:35 AM75.2 °F0.0 °F30.02 in10.0 miSE (130°)4.6 mphScattered Clouds
1:55 AM75.2 °F0.0 °F30.01 in10.0 miSE (130°)6.9 mphMostly Cloudy
2:15 AM75.2 °F0.0 °F30.00 in10.0 miSE (140°)6.9 mphScattered Clouds
2:35 AM75.2 °F0.0 °F29.99 in10.0 miSE (130°)4.6 mphScattered Clouds
2:55 AM75.2 °F0.0 °F29.99 in10.0 miSE (140°)5.8 mphClear
3:15 AM75.2 °F0.0 °F29.98 in10.0 miSE (130°)4.6 mphClear
3:35 AM75.2 °F0.0 °F29.98 in10.0 miSE (140°)4.6 mphClear
3:55 AM75.2 °F0.0 °F29.97 in10.0 miSSE (150°)5.8 mphScattered Clouds
4:15 AM75.2 °F0.0 °F29.96 in10.0 miSE (130°)5.8 mphScattered Clouds
4:35 AM75.2 °F0.0 °F29.96 in10.0 miSE (140°)8.1 mphClear
4:55 AM75.2 °F0.0 °F29.97 in10.0 miSE (140°)6.9 mphClear
5:15 AM75.2 °F0.0 °F29.97 in10.0 miSSE (150°)5.8 mphClear
5:35 AM75.2 °F0.0 °F29.97 in10.0 miSE (140°)4.6 mphClear
5:55 AM75.2 °F0.0 °F29.97 in10.0 miSE (140°)5.8 mphClear
6:15 AM75.2 °F0.0 °F29.98 in10.0 miSSE (150°)4.6 mphClear
6:35 AM75.2 °F0.0 °F29.98 in10.0 miSSE (160°)4.6 mphClear
6:55 AM75.2 °F0.0 °F29.98 in10.0 miSSE (150°)4.6 mphClear
7:15 AM75.2 °F0.0 °F29.98 in10.0 miSSE (150°)4.6 mphClear
7:35 AM75.2 °F0.0 °F29.98 in10.0 miSSE (150°)6.9 mphScattered Clouds
7:55 AM75.2 °F0.0 °F29.99 in10.0 miSSE (150°)8.1 mphScattered Clouds
8:15 AM75.2 °F0.0 °F29.99 in10.0 miSSE (160°)9.2 mphScattered Clouds
8:35 AM77.0 °F0.0 °F29.99 in10.0 miSSE (160°)8.1 mphClear
8:55 AM77.0 °F0.0 °F29.99 in10.0 miSouth (170°)9.2 mphScattered Clouds
9:15 AM78.8 °F0.0 °F29.99 in10.0 miSouth (170°)5.8 mphScattered Clouds
9:35 AM78.8 °F0.0 °F29.99 in10.0 miSouth (170°)9.2 mphScattered Clouds
9:55 AM80.6 °F80.6 °F100 %29.98 in10.0 miSouth (170°)6.9 mphMostly Cloudy
10:15 AM82.4 °F75.2 °F79 %29.99 in10.0 miSouth (170°)12.7 mph17.3 mphOvercast
10:35 AM82.4 °F75.2 °F79 %29.99 in10.0 miSSW (200°)10.4 mphOvercast
10:55 AM82.4 °F75.2 °F79 %29.99 in10.0 miSSW (210°)6.9 mphOvercast
11:15 AM84.2 °F75.2 °F74 %29.99 in10.0 miSW (220°)10.4 mph21.9 mphMostly Cloudy
11:35 AM86.0 °F75.2 °F70 %29.98 in10.0 miSouth (190°)11.5 mph17.3 mphMostly Cloudy
11:55 AM86.0 °F73.4 °F66 %29.97 in10.0 miSouth (190°)10.4 mph18.4 mphMostly Cloudy
12:15 PM80.6 °F75.2 °F84 %29.98 in10.0 miWest (260°)11.5 mph19.6 mphRainLight Rain
12:35 PM82.4 °F75.2 °F79 %29.97 in10.0 miWSW (250°)8.1 mphMostly Cloudy
12:55 PM84.2 °F75.2 °F74 %29.96 in10.0 miSW (230°)11.5 mphScattered Clouds
1:35 PM87.8 °F73.4 °F62 %29.95 in10.0 miWSW (250°)18.4 mph23.0 mphClear
1:55 PM87.8 °F75.2 °F66 %29.95 in10.0 miWSW (250°)18.4 mph24.2 mphScattered Clouds
2:15 PM87.8 °F73.4 °F62 %29.95 in10.0 miWest (260°)17.3 mph24.2 mphScattered Clouds
3:15 PM86.0 °F71.6 °F62 %29.94 in10.0 miWest (270°)17.3 mph23.0 mphMostly Cloudy
3:55 PM82.4 °F75.2 °F79 %29.93 in7.0 miWest (270°)10.4 mphRainLight Rain
4:15 PM84.2 °F73.4 °F70 %29.92 in10.0 miWest (260°)12.7 mph17.3 mphOvercast
4:35 PM86.0 °F69.8 °F58 %29.92 in10.0 miWest (280°)10.4 mph19.6 mphOvercast
4:55 PM87.8 °F69.8 °F55 %29.92 in10.0 miWNW (290°)11.5 mph18.4 mphScattered Clouds
5:15 PM86.0 °F69.8 °F58 %29.92 in10.0 miWNW (300°)8.1 mphScattered Clouds
5:35 PM86.0 °F71.6 °F62 %29.93 in10.0 miWNW (300°)12.7 mph17.3 mphMostly Cloudy
5:55 PM84.2 °F71.6 °F66 %29.94 in10.0 miWNW (290°)12.7 mph17.3 mphScattered Clouds
6:15 PM82.4 °F71.6 °F70 %29.94 in10.0 miNW (310°)8.1 mphMostly Cloudy
6:35 PM82.4 °F71.6 °F70 %29.94 in10.0 miNW (310°)8.1 mphScattered Clouds
6:55 PM82.4 °F71.6 °F70 %29.95 in10.0 miNW (310°)9.2 mphMostly Cloudy
7:15 PM80.6 °F71.6 °F74 %29.95 in10.0 miNW (310°)9.2 mph19.6 mphScattered Clouds
7:35 PM78.8 °F71.6 °F78 %29.96 in10.0 miNW (310°)10.4 mphScattered Clouds
7:55 PM78.8 °F69.8 °F74 %29.97 in10.0 miNW (310°)9.2 mphMostly Cloudy
8:15 PM77.0 °F71.6 °F83 %29.98 in10.0 miWNW (290°)6.9 mphScattered Clouds
8:35 PM77.0 °F71.6 °F83 %29.99 in10.0 miWNW (290°)6.9 mphScattered Clouds
8:55 PM77.0 °F69.8 °F78 %29.99 in10.0 miWNW (290°)5.8 mphScattered Clouds
9:15 PM75.2 °F71.6 °F89 %29.99 in10.0 miWNW (290°)6.9 mphClear
9:35 PM75.2 °F71.6 °F89 %30.00 in10.0 miWNW (290°)6.9 mphClear
9:55 PM75.2 °F71.6 °F89 %30.01 in10.0 miWNW (290°)6.9 mphClear
10:15 PM75.2 °F69.8 °F83 %30.01 in10.0 miWNW (290°)6.9 mphClear
10:35 PM75.2 °F69.8 °F83 %30.01 in10.0 miWNW (290°)8.1 mphClear
10:55 PM75.2 °F69.8 °F83 %30.02 in10.0 miWNW (290°)5.8 mphClear
11:15 PM75.2 °F69.8 °F83 %30.02 in10.0 miWest (280°)5.8 mphClear
11:35 PM73.4 °F69.8 °F88 %30.03 in10.0 miWNW (290°)8.1 mphClear
11:55 PM73.4 °F69.8 °F88 %30.03 in10.0 miWNW (290°)4.6 mphScattered Clouds
Hourly data recorded from KPCM, located miles away from San Martiniano, Quintana Roo







STORIES FROM OUR PARTNERS